Weather History for KRSV - January, 2012

Change the Weather History Date:

Friday, January 13, 2012

  Actual Average (KLWV) Record (KLWV)
Temperature  
Mean Temperature 18 °F 31 °F  
Max Temperature 20 °F 39 °F 62 °F (2005)
Min Temperature 16 °F 23 °F -4 °F (1997)
Degree Days  
Heating Degree Days 47 34  
Month to date heating degree days 442  
Since 1 July heating degree days 2241  
Cooling Degree Days 0 0  
Month to date cooling degree days 0  
Year to date cooling degree days 0  
Moisture  
Dew Point 11 °F    
Average Humidity 71    
Maximum Humidity 79    
Minimum Humidity 63    
Precipitation  
Precipitation 0.00 in 0.08 in 1.04 in (2005)
Month to date precipitation 1.18  
Year to date precipitation 1.18  
Sea Level Pressure  
Sea Level Pressure 30.02 in    
Wind  
Wind Speed 16 mph (WSW)    
Max Wind Speed 23 mph    
Max Gust Speed 30 mph    
Visibility 9 miles    
Events Snow    
T = Trace of Precipitation, MM = Missing Value Source: NWS Daily Summary

Daily Weather History Graph

Daily Weather History Graph

Search for Another Location

Airport or City:

Trip Planner

Search our weather history database for the weather conditions in past years. The results will help you decide how hot, cold, wet, or windy it might be!

Date:

Astronomy

Jan. 13, 2012 Rise Set
Actual Time 7:08 AM CST 4:49 PM CST
Civil Twilight 6:39 AM CST 5:19 PM CST
Nautical Twilight 6:06 AM CST 5:52 PM CST
Astronomical Twilight 5:34 AM CST 6:24 PM CST
Moon 9:59 PM CST (1/13) 9:25 AM CST (1/13)
Length of Visible Light 10h 39m
Length of Day
9h 41m
Waning Gibbous, 78% of the Moon is Illuminated
Jan 13
Waning Gibbous
Jan 16
Last Quarter
Jan 23
New
Jan 30
First Quarter
Feb 7
Full

Hourly Weather History & Observations

Time (CST) Temp. Windchill Dew Point Humidity Pressure Visibility Wind Dir Wind Speed Gust Speed Precip Events Conditions
12:15 AM 17.1 °F -0.3 °F 11.3 °F 78% 29.83 in 5.0 mi WSW 21.9 mph 27.6 mph N/A Snow Light Snow
12:35 AM 17.1 °F 0.1 °F 11.3 °F 78% 29.84 in 4.0 mi WSW 20.7 mph 27.6 mph N/A Snow Light Snow
12:55 AM 17.1 °F 1.0 °F 11.7 °F 79% 29.85 in 4.0 mi WSW 18.4 mph 28.8 mph N/A Snow Light Snow
1:15 AM 17.1 °F 0.6 °F 11.5 °F 79% 29.85 in 4.0 mi WSW 19.6 mph - N/A Snow Light Snow
1:35 AM 17.1 °F 0.1 °F 11.1 °F 77% 29.86 in 7.0 mi WSW 20.7 mph 27.6 mph N/A Snow Light Snow
1:55 AM 17.2 °F 1.7 °F 10.8 °F 76% 29.86 in 10.0 mi WSW 17.3 mph 26.5 mph N/A Snow Light Snow
2:15 AM 17.2 °F 1.2 °F 11.1 °F 77% 29.87 in 7.0 mi WSW 18.4 mph 26.5 mph N/A Snow Light Snow
2:35 AM 16.9 °F 0.8 °F 10.2 °F 75% 29.88 in 10.0 mi WSW 18.4 mph 25.3 mph N/A   Overcast
2:55 AM 17.1 °F 0.6 °F 10.6 °F 76% 29.88 in 7.0 mi WSW 19.6 mph 27.6 mph N/A Snow Light Snow
3:15 AM 17.2 °F -0.4 °F 10.8 °F 76% 29.88 in 7.0 mi WSW 23.0 mph 28.8 mph N/A Snow Light Snow
3:35 AM 17.1 °F 0.6 °F 10.2 °F 75% 29.89 in 7.0 mi WSW 19.6 mph 29.9 mph N/A Snow Light Snow
3:55 AM 16.7 °F 1.0 °F 10.2 °F 76% 29.89 in 7.0 mi WSW 17.3 mph - N/A Snow Light Snow
4:15 AM 16.7 °F 2.0 °F 10.4 °F 76% 29.90 in 7.0 mi WSW 15.0 mph 25.3 mph N/A   Overcast
4:35 AM 16.7 °F 2.0 °F 10.4 °F 76% 29.91 in 5.0 mi WSW 15.0 mph 19.6 mph N/A Snow Light Snow
4:55 AM 16.7 °F 0.5 °F 9.9 °F 74% 29.92 in 5.0 mi WSW 18.4 mph 24.2 mph N/A Snow Light Snow
5:15 AM 16.2 °F 1.3 °F 9.3 °F 74% 29.93 in 5.0 mi West 15.0 mph 21.9 mph N/A Snow Light Snow
5:35 AM 16.5 °F 1.8 °F 7.5 °F 68% 29.94 in 10.0 mi WSW 15.0 mph 19.6 mph N/A   Overcast
5:55 AM 16.7 °F 1.5 °F 7.7 °F 68% 29.94 in 10.0 mi WSW 16.1 mph 20.7 mph N/A   Overcast
6:15 AM 16.7 °F 2.0 °F 8.6 °F 70% 29.95 in 10.0 mi WSW 15.0 mph - N/A   Overcast
6:55 AM 17.2 °F 2.7 °F 9.5 °F 72% 29.97 in 10.0 mi WSW 15.0 mph - N/A Snow Light Snow
7:15 AM 17.2 °F 3.9 °F 9.5 °F 72% 29.97 in 7.0 mi WSW 12.7 mph - N/A Snow Light Snow
7:35 AM 17.4 °F 4.7 °F 9.9 °F 72% 29.98 in 7.0 mi WSW 11.5 mph 18.4 mph N/A Snow Light Snow
8:15 AM 18.0 °F 3.6 °F 9.9 °F 71% 30.00 in 7.0 mi WSW 15.0 mph 19.6 mph N/A Snow Light Snow
8:35 AM 18.1 °F 4.4 °F 10.8 °F 73% 30.01 in 10.0 mi WSW 13.8 mph - N/A Snow Light Snow
8:55 AM 18.1 °F 3.9 °F 10.6 °F 72% 30.01 in 7.0 mi WSW 15.0 mph 20.7 mph N/A Snow Light Snow
9:15 AM 18.5 °F 4.3 °F 10.8 °F 72% 30.03 in 5.0 mi WSW 15.0 mph 21.9 mph N/A Snow Light Snow
9:35 AM 18.5 °F 3.3 °F 10.2 °F 70% 30.04 in 10.0 mi WSW 17.3 mph 21.9 mph N/A   Overcast
9:55 AM 18.7 °F 4.0 °F 9.5 °F 67% 30.04 in 10.0 mi WSW 16.1 mph - N/A Snow Light Snow
10:15 AM 19.2 °F 4.7 °F 10.0 °F 67% 30.05 in 10.0 mi WSW 16.1 mph - N/A Snow Light Snow
10:35 AM 19.6 °F 6.2 °F 10.2 °F 67% 30.06 in 10.0 mi WSW 13.8 mph 21.9 mph N/A Snow Light Snow
10:55 AM 19.9 °F 6.2 °F 10.4 °F 67% 30.05 in 10.0 mi WSW 15.0 mph - N/A   Overcast
11:15 AM 19.6 °F 5.7 °F 10.2 °F 67% 30.05 in 7.0 mi West 15.0 mph - N/A Snow Light Snow
11:35 AM 20.1 °F 6.4 °F 10.9 °F 68% 30.05 in 10.0 mi West 15.0 mph - N/A Snow Light Snow
11:55 AM 20.3 °F 6.6 °F 9.9 °F 64% 30.06 in 10.0 mi WSW 15.0 mph - N/A   Overcast
12:15 PM 20.3 °F 8.3 °F 9.5 °F 63% 30.06 in 10.0 mi WSW 11.5 mph - N/A   Overcast
12:35 PM 20.8 °F 6.8 °F 10.2 °F 64% 30.06 in 10.0 mi West 16.1 mph - N/A   Overcast
12:55 PM 20.5 °F 6.4 °F 10.0 °F 64% 30.06 in 10.0 mi WSW 16.1 mph - N/A   Overcast
1:15 PM 20.8 °F 6.8 °F 10.4 °F 64% 30.07 in 10.0 mi WSW 16.1 mph - N/A Snow Light Snow
1:35 PM 20.8 °F 8.4 °F 10.4 °F 64% 30.07 in 10.0 mi WSW 12.7 mph - N/A   Overcast
1:55 PM 20.8 °F 7.9 °F 10.9 °F 66% 30.07 in 10.0 mi WSW 13.8 mph - N/A   Overcast
2:15 PM 20.7 °F 7.6 °F 10.9 °F 66% 30.08 in 10.0 mi SW 13.8 mph 19.6 mph N/A   Overcast
2:35 PM 20.5 °F 8.0 °F 10.2 °F 65% 30.08 in 10.0 mi WSW 12.7 mph - N/A   Overcast
3:15 PM 20.3 °F 6.1 °F 10.8 °F 67% 30.10 in 10.0 mi SW 16.1 mph - N/A   Overcast
3:35 PM 20.3 °F 7.2 °F 10.9 °F 67% 30.10 in 10.0 mi WSW 13.8 mph - N/A   Overcast
3:55 PM 20.3 °F 9.8 °F 11.1 °F 68% 30.11 in 10.0 mi WSW 9.2 mph - N/A   Overcast
4:15 PM 20.1 °F 8.1 °F 11.3 °F 69% 30.11 in 10.0 mi SW 11.5 mph - N/A Snow Light Snow
4:35 PM 20.1 °F 10.3 °F 12.2 °F 71% 30.12 in 10.0 mi WSW 8.1 mph - N/A   Overcast
4:55 PM 19.9 °F 11.1 °F 12.7 °F 74% 30.13 in 10.0 mi WSW 6.9 mph - N/A Snow Light Snow
5:15 PM 20.1 °F 11.3 °F 12.6 °F 73% 30.13 in 10.0 mi WSW 6.9 mph - N/A   Overcast
5:35 PM 20.1 °F 11.3 °F 12.6 °F 73% 30.14 in 10.0 mi WSW 6.9 mph - N/A   Overcast
5:55 PM 20.1 °F 12.3 °F 13.1 °F 74% 30.14 in 10.0 mi WSW 5.8 mph - N/A   Overcast
6:15 PM 20.3 °F 13.8 °F 13.3 °F 74% 30.14 in 10.0 mi WSW 4.6 mph - N/A   Overcast
6:35 PM 20.3 °F 13.8 °F 13.5 °F 75% 30.14 in 10.0 mi WSW 4.6 mph - N/A   Overcast
6:55 PM 20.5 °F 14.0 °F 13.8 °F 75% 30.15 in 10.0 mi WSW 4.6 mph - N/A   Overcast
7:15 PM 20.7 °F 11.9 °F 13.5 °F 74% 30.15 in 10.0 mi SW 6.9 mph - N/A   Overcast
7:35 PM 20.8 °F 9.7 °F 13.6 °F 74% 30.15 in 10.0 mi SW 10.4 mph - N/A   Overcast
7:55 PM 20.8 °F 10.4 °F 12.4 °F 70% 30.15 in 10.0 mi SW 9.2 mph - N/A   Overcast
8:15 PM 20.8 °F 12.1 °F 12.0 °F 69% 30.15 in 10.0 mi SW 6.9 mph - N/A   Overcast
8:35 PM 20.8 °F 9.0 °F 12.7 °F 71% 30.15 in 10.0 mi WSW 11.5 mph - N/A   Overcast
8:55 PM 20.7 °F 8.2 °F 12.4 °F 70% 30.15 in 10.0 mi WSW 12.7 mph - N/A   Overcast
9:35 PM 20.3 °F 10.6 °F 12.7 °F 73% 30.16 in 10.0 mi WSW 8.1 mph - N/A   Overcast
9:55 PM 20.5 °F 10.0 °F 12.7 °F 72% 30.16 in 10.0 mi WSW 9.2 mph - N/A   Overcast
10:35 PM 17.1 °F 8.7 °F 11.1 °F 77% 30.17 in 10.0 mi SW 5.8 mph - N/A   Mostly Cloudy
10:55 PM 14.9 °F 5.0 °F 9.5 °F 79% 30.17 in 10.0 mi SW 6.9 mph - N/A   Scattered Clouds
11:15 PM 14.2 °F 6.7 °F 8.8 °F 79% 30.16 in 10.0 mi SW 4.6 mph - N/A   Clear
11:35 PM 12.4 °F 6.3 °F 7.9 °F 82% 30.15 in 10.0 mi SSW 3.5 mph - N/A   Clear
11:55 PM 9.9 °F -1.1 °F 5.5 °F 83% 30.16 in 10.0 mi SSW 6.9 mph - N/A   Clear